FW5319 Weather Reports


time (UTC)temp
F
wind
direction
speed
knots
gust
knots
rain 1hr
in
rain 24hr
in
rain mn
in
humidity
%
barometer
mb
20260507223029 74 337 8.7 15.6 0.00 0.00 0.00 29 1016.4
20260507221607 74 349 8.7 13.0 0.00 0.00 0.00 30 1016.6
20260507220034 73 347 8.7 13.9 0.00 0.00 0.00 29 1016.8
20260507214530 72 354 9.6 15.6 0.00 0.00 0.00 31 1017.0
20260507213030 72 354 7.8 15.6 0.00 0.00 0.00 32 1017.0
20260507211540 71 342 8.7 15.6 0.00 0.00 0.00 32 1017.1
20260507210030 71 346 9.6 15.6 0.00 0.00 0.00 33 1017.3
20260507204607 70 350 7.0 13.9 0.00 0.00 0.00 33 1017.6
20260507203032 70 10 6.1 10.4 0.00 0.00 0.00 34 1017.8
20260507201532 69 37 5.2 12.2 0.00 0.00 0.00 35 1017.9
20260507200054 69 27 5.2 9.6 0.00 0.00 0.00 36 1018.0
20260507193032 66 335 4.3 11.3 0.00 0.00 0.00 41 1018.2
20260507191529 65 349 5.2 9.6 0.00 0.00 0.00 44 1018.4
20260507190029 64 7 4.3 8.7 0.00 0.00 0.00 46 1018.6
20260507184529 63 4 5.2 9.6 0.00 0.00 0.00 47 1018.7
20260507183046 62 335 5.2 9.6 0.00 0.00 0.00 52 1018.8
20260507181530 61 323 5.2 10.4 0.00 0.00 0.00 53 1018.9
20260507180029 61 360 7.0 10.4 0.00 0.00 0.00 55 1019.1
20260507174531 61 357 5.2 10.4 0.00 0.00 0.00 56 1019.1
20260507173029 60 346 4.3 7.8 0.00 0.00 0.00 58 1019.2
20260507170032 60 27 6.1 11.3 0.00 0.00 0.00 62 1019.4
20260507164532 60 358 4.3 7.0 0.00 0.00 0.00 66 1019.3
20260507163110 59 313 4.3 7.0 0.00 0.00 0.00 69 1019.2
20260507160031 57 286 3.5 7.0 0.00 0.00 0.00 77 1019.7
20260507154530 54 291 4.3 7.0 0.00 0.00 0.00 81 1019.8
20260507153107 52 271 2.6 6.1 0.00 0.00 0.00 84 1019.9
20260507151530 51 305 1.7 3.5 0.00 0.00 0.00 85 1020.0
20260507150036 50 279 1.7 3.5 0.00 0.00 0.00 87 1019.9
20260507144534 49 350 0.9 1.7 0.00 0.00 0.00 88 1019.9
20260507143030 48 347 0.0 2.6 0.00 0.00 0.00 89 1019.9
20260507141530 47 75 0.0 2.6 0.00 0.00 0.00 90 1019.8
20260507140145 46 330 0.0 1.7 0.00 0.00 0.00 90 1019.5
20260507134533 45 154 0.0 3.5 0.00 0.00 0.00 89 1019.3
20260507133106 44 178 1.7 2.6 0.00 0.00 0.00 89 1019.3
20260507130033 45 351 0.0 1.7 0.00 0.00 0.00 88 1019.1
20260507124530 45 93 0.0 2.6 0.00 0.00 0.00 88 1019.1
20260507123030 46 130 1.7 4.3 0.00 0.00 0.00 87 1019.0
20260507120145 47 149 3.5 5.2 0.00 0.00 0.00 86 1018.9
20260507114539 47 79 3.5 6.1 0.00 0.00 0.00 86 1018.8
20260507113031 47 102 1.7 5.2 0.00 0.00 0.00 86 1018.7
20260507111531 47 87 2.6 6.1 0.00 0.00 0.00 85 1018.6
20260507110030 47 109 4.3 7.8 0.00 0.00 0.00 84 1018.5
20260507104530 48 126 4.3 7.8 0.00 0.00 0.00 82 1018.3
20260507103032 50 141 4.3 7.0 0.00 0.00 0.00 81 1018.4
20260507101531 50 103 0.9 4.3 0.00 0.00 0.00 79 1018.3
20260507093033 53 49 1.7 5.2 0.00 0.00 0.00 78 1018.5
20260507090031 52 71 0.9 4.3 0.00 0.00 0.00 80 1018.5
20260507084529 52 95 1.7 6.1 0.00 0.00 0.00 80 1018.6
20260507083032 52 99 2.6 6.1 0.00 0.00 0.00 79 1018.7
20260507081531 53 86 2.6 5.2 0.00 0.00 0.00 77 1018.7
20260507080030 54 75 2.6 7.0 0.00 0.00 0.00 76 1018.8
20260507074531 55 42 5.2 8.7 0.00 0.00 0.00 76 1018.8
20260507073031 53 49 4.3 8.7 0.00 0.00 0.00 76 1018.7
20260507071531 53 85 2.6 6.1 0.00 0.00 0.00 74 1018.7
20260507070034 53 341 0.9 3.5 0.00 0.00 0.00 74 1018.8
20260507064531 53 253 0.9 3.5 0.00 0.00 0.00 74 1018.9
20260507063107 54 139 0.9 4.3 0.00 0.00 0.00 72 1018.9
20260507061529 56 134 1.7 4.3 0.00 0.00 0.00 67 1019.1
20260507060106 58 131 1.7 4.3 0.00 0.00 0.00 63 1019.1
20260507053107 59 303 5.2 13.9 0.00 0.00 0.00 59 1019.1
20260507051607 59 298 7.8 15.6 0.00 0.00 0.00 58 1018.9
20260507050031 59 294 7.0 13.9 0.00 0.00 0.00 57 1019.0
20260507044531 59 302 7.0 13.0 0.00 0.00 0.00 56 1019.2
20260507043030 59 308 4.3 9.6 0.00 0.00 0.00 54 1019.3
20260507041530 60 318 3.5 7.0 0.00 0.00 0.00 53 1019.3
20260507040039 62 316 2.6 7.8 0.00 0.00 0.00 50 1019.1
20260507034531 63 313 7.0 13.0 0.00 0.00 0.00 49 1019.0
20260507033031 63 315 9.6 14.8 0.00 0.00 0.00 48 1018.8
20260507030107 65 310 12.2 19.1 0.00 0.00 0.00 48 1018.4
20260507024528 65 311 11.3 20.0 0.00 0.00 0.00 48 1018.4
20260507023034 65 310 13.0 20.9 0.00 0.00 0.00 48 1018.3
20260507021532 65 312 13.0 20.9 0.00 0.00 0.00 47 1018.2
20260507020106 66 304 13.0 20.9 0.00 0.00 0.00 47 1018.0
20260507014528 66 308 8.7 19.1 0.00 0.00 0.00 47 1018.1
20260507013108 66 325 7.0 16.5 0.00 0.00 0.00 48 1018.1
20260507011531 67 334 8.7 13.9 0.00 0.00 0.00 46 1018.0
20260507010031 68 330 9.6 17.4 0.00 0.00 0.00 45 1017.9
20260507004530 68 327 10.4 17.4 0.00 0.00 0.00 44 1017.8
20260507003032 69 320 12.2 19.1 0.00 0.00 0.00 43 1017.5
20260507001531 69 317 10.4 20.0 0.00 0.00 0.00 43 1017.5
20260507000029 70 320 11.3 19.1 0.00 0.00 0.00 42 1017.3
20260506233029 72 316 11.3 18.2 0.00 0.00 0.00 41 1017.3
20260506231637 73 318 9.6 18.2 0.00 0.00 0.00 40 1017.4
20260506230030 74 323 7.8 16.5 0.00 0.00 0.00 40 1017.6
20260506224529 75 317 10.4 20.0 0.00 0.00 0.00 41 1017.7